Location: Brede
(50.9167°N, 0.6000°E)
Time: 18:19:39
(UTC+00:00)

Cosmos 2333 Rocket - Pass Details

Date: 08 August 2020
Orbit: 837 x 864 km, 70.8° (Epoch: 23 September)

Event Time Altitude Azimuth Distance (km) Brightness Sun altitude
Rises 00:26:48 0° 327° (NNW) 3,456 6.2 -22.8°
Reaches altitude 10° 00:29:19 10° 322° (NW) 2,515 5.2 -22.8°
Maximum altitude 00:34:53 51° 249° (WSW) 1,083 2.5 -22.7°
Enters shadow 00:35:47 46° 219° (SW) 1,143 2.5 -22.7°
